Waarnemingen

Advertentie
Mijn weer
Gotska sandoen, Zweden (2589): temperatuur & dauwpunt: 19.02.2018 06:00:00 - 25.02.2018 06:00:00 (CET)Gotska sandoen, Zweden (2589): windsnelheid & windstoten: 19.02.2018 06:00:00 - 25.02.2018 06:00:00 (CET)Gotska sandoen, Zweden (2589): windrichting: 19.02.2018 06:00:00 - 25.02.2018 06:00:00 (CET)Gotska sandoen, Zweden (2589): luchtdruk: 19.02.2018 06:00:00 - 25.02.2018 06:00:00 (CET)Gotska sandoen, Zweden (2589): zicht: 19.02.2018 06:00:00 - 25.02.2018 06:00:00 (CET)Gotska sandoen, Zweden (2589): neerslag: 19.02.2018 06:00:00 - 25.02.2018 06:00:00 (CET)
Datum & Tijd tt [°C] td [°C] ff [km/u] ff [kn] fx [km/u] fx [kn] dd ppp [hPa] vv [km] rr [mm]
25.02.2018 06:00:00 -5,8 -8,4 21 11 42 23 NO 1036,7 3,0 0,0
25.02.2018 05:00:00 -5,9 -10,3 19 10 35 19 NO 1036,6 50 0,0
25.02.2018 04:00:00 -5,6 -10,6 19 10 37 20 NO 1036,4 35 0,0
25.02.2018 03:00:00 -5,5 -9,7 17 9 40 21 NO 1036,4 19 0,0
25.02.2018 02:00:00 -5,3 -9,9 19 11 37 20 NO 1036,5 46 0,0
25.02.2018 01:00:00 -5,2 -10,0 20 11 35 19 NO 1036,6 25 0,0
25.02.2018 00:00:00 -5,2 -9,6 15 8 36 20 NNO 1036,5 50 0,0
24.02.2018 23:00:00 -5,2 -10,2 16 9 35 19 NO 1036,5 50 0,0
24.02.2018 22:00:00 -5,0 -10,2 18 10 34 18 NNO 1036,5 50 0,0
24.02.2018 21:00:00 -4,9 -9,7 16 9 35 19 NO 1036,5 27 0,0
24.02.2018 20:00:00 -5,2 -9,5 14 8 32 17 NNO 1036,6 50 0,0
24.02.2018 19:00:00 -5,1 -9,2 13 7 32 17 NNO 1036,8 50 0,0
24.02.2018 18:00:00 -5,1 -8,8 13 7 33 18 NNO 1036,9 50 0,0
24.02.2018 17:00:00 -5,0 -9,3 16 9 33 18 NNO 1036,9 50 0,0
24.02.2018 16:00:00 -4,8 -8,4 16 8 31 17 NNO 1036,9 12 0,0
24.02.2018 15:00:00 -4,5 -8,8 16 9 34 19 NNO 1037,1 21 0,0
24.02.2018 14:00:00 -4,2 -8,9 18 10 35 19 NNO 1036,9 43 0,0
24.02.2018 13:00:00 -4,2 -8,7 17 9 38 21 NO 1037,1 4,6 0,0
24.02.2018 12:00:00 -4,2 -8,5 18 10 37 20 NNO 1037,2 15 0,1
24.02.2018 11:00:00 -4,2 -8,3 19 10 39 21 NO 1037,2 27 0,0
24.02.2018 10:00:00 -4,6 -8,7 17 9 38 20 NO 1037,0 3,1 0,0
24.02.2018 09:00:00 -4,8 -8,5 21 11 41 22 NO 1036,7 4,7 0,0
24.02.2018 08:00:00 -4,9 -9,5 24 13 44 24 NO 1036,2 42 0,0
24.02.2018 07:00:00 -4,8 -8,9 23 12 43 23 NO 1035,9 10 0,0
24.02.2018 06:00:00 -4,7 -8,8 25 13 50 27 NO 1035,5 18 0,0
24.02.2018 05:00:00 -4,6 -8,5 22 12 46 25 NO 1034,6 39 0,0
24.02.2018 04:00:00 -4,4 -9,4 23 13 50 27 NO 1034,2 40 0,0
24.02.2018 03:00:00 -4,1 -6,1 26 14 48 26 NO 1033,6 5 0,0
24.02.2018 02:00:00 -4,0 -7,9 24 13 49 27 NO 1033,3 50 0,0
24.02.2018 01:00:00 -4,1 -7,9 27 15 47 26 NO 1032,7 20 0,0
24.02.2018 00:00:00 -3,9 -8,7 27 15 51 28 NO 1032,1 50 0,0
23.02.2018 23:00:00 -4,0 -8,3 30 16 52 28 NO 1031,6 50 0,0
23.02.2018 22:00:00 -3,7 -7,3 27 15 58 32 NO 1031,1 47 0,0
23.02.2018 21:00:00 -3,5 -6,0 24 13 53 29 NNO 1030,5 21 0,0
23.02.2018 20:00:00 -3,7 -7,3 31 17 60 32 NO 1030,1 20 0,0
23.02.2018 19:00:00 -3,5 -8,4 31 17 62 33 NO 1029,3 26 0,0
23.02.2018 18:00:00 -3,4 -8,5 31 17 61 33 NO 1028,8 50 0,0
23.02.2018 17:00:00 -3,2 -8,5 31 17 53 29 NO 1027,7 50 0,0
23.02.2018 16:00:00 -2,8 -7,3 27 15 49 27 NNO 1027,2 50 0,0
23.02.2018 15:00:00 -2,9 -4,5 26 14 54 29 NO 1026,6 0,8 0,0
23.02.2018 14:00:00 -1,9 -5,7 25 14 49 27 NNO 1026,0 41 0,1
23.02.2018 13:00:00 -2,5 -4,1 14 7 38 20 NNO 1025,8 0,7 0,2
23.02.2018 12:00:00 -1,6 -6,0 17 9 39 21 NNO 1025,6 50 0,0
23.02.2018 11:00:00 -1,5 -5,7 16 8 41 22 N 1025,2 50 0,2
23.02.2018 10:00:00 -1,8 -3,5 12 7 34 18 NNO 1024,9 4,9 0,2
23.02.2018 09:00:00 -1,8 -3,7 14 8 27 15 N 1024,7 27 0,0
23.02.2018 08:00:00 -1,9 -3,0 13 7 26 14 NNW 1024,5 15 0,1
23.02.2018 07:00:00 -1,9 -3,5 12 7 22 12 NNW 1024,5 32 0,0
23.02.2018 06:00:00 -1,8 -3,5 13 7 26 14 NW 1024,5 23 0,0
23.02.2018 05:00:00 -1,7 -3,1 11 6 22 12 NW 1024,5 13 0,2
23.02.2018 04:00:00 -1,7 -3,3 12 6 25 13 WNW 1024,9 6 0,3
23.02.2018 03:00:00 -2,0 -3,6 11 6 21 11 W 1025,4 18 0,1
23.02.2018 02:00:00 -2,2 -4,5 8 5 19 11 W 1026,0 18 0,0
23.02.2018 01:00:00 -2,4 -5,2 7 4 17 9 W 1026,5 12 0,0
23.02.2018 00:00:00 -2,4 -5,9 9 5 23 13 W 1026,7 50 0,0
22.02.2018 23:00:00 -2,6 -5,6 11 6 28 15 W 1027,2 50 0,0
22.02.2018 22:00:00 -2,4 -5,9 14 8 29 16 W 1027,4 42 0,0
22.02.2018 21:00:00 -2,6 -4,8 16 9 32 17 W 1027,6 18 0,0
22.02.2018 20:00:00 -2,4 -3,2 16 8 38 20 WZW 1028,0 2,6 0,2
22.02.2018 19:00:00 -2,4 -2,8 22 12 36 20 ZW 1028,1 2,6 0,6
22.02.2018 18:00:00 -3,0 -3,5 19 10 36 19 ZZW 1028,3 0,5 0,1
22.02.2018 17:00:00 -3,0 -4,9 18 10 35 19 ZZW 1028,6 6 0,0
22.02.2018 16:00:00 -2,3 -6,7 15 8 31 17 ZZW 1028,8 25 0,0
22.02.2018 15:00:00 -2,0 -6,7 12 7 32 17 ZZW 1029,1 34 0,0
22.02.2018 14:00:00 -1,9 -7,4 14 7 26 14 ZZW 1029,6 44 0,0
22.02.2018 13:00:00 -1,9 -7,4 13 7 26 14 ZZW 1030,1 46 0,0
22.02.2018 12:00:00 -1,9 -6,8 10 6 28 15 Z 1030,2 20 0,0
22.02.2018 11:00:00 -2,3 -7,4 11 6 24 13 Z 1030,3 28 0,8
22.02.2018 10:00:00 -2,8 -6,4 10 5 18 10 Z 1030,5 50 0,0
22.02.2018 09:00:00 -3,7 -7,1 10 5 19 10 ZZO 1030,6 42 0,0
22.02.2018 08:00:00 -5,8 -8,2 11 6 17 9 ZZO 1030,3 50 0,0
22.02.2018 07:00:00 -6,5 -8,9 11 6 16 8 ZZO 1030,2 50 0,0
22.02.2018 06:00:00 -7,1 -8,9 10 6 16 9 ZO 1030,1 50 0,0
22.02.2018 05:00:00 -7,4 -8,9 10 5 12 7 ZO 1030,0 50 0,0
22.02.2018 04:00:00 -7,1 -8,5 10 6 15 8 ZO 1030,1 50 0,0
22.02.2018 03:00:00 -7,3 -8,7 10 6 15 8 ZO 1029,9 50 0,0
22.02.2018 02:00:00 -5,6 -7,3 9 5 14 8 OZO 1030,0 50 0,0
22.02.2018 01:00:00 -4,7 -6,2 7 4 16 9 ZZO 1029,8 50 0,1
22.02.2018 00:00:00 -5,1 -6,6 8 5 19 10 ZO 1029,8 50 0,0
21.02.2018 23:00:00 -5,3 -6,8 8 5 14 7 ZO 1029,5 47 0,0
21.02.2018 22:00:00 -5,1 -6,5 10 5 18 10 ZO 1029,2 11 0,0
21.02.2018 21:00:00 -5,1 -6,5 10 5 16 9 ZO 1028,8 37 0,0
21.02.2018 20:00:00 -4,6 -5,7 10 5 20 11 OZO 1028,3 23 0,1
21.02.2018 19:00:00 -4,2 -4,9 10 6 22 12 OZO 1027,9 1,1 1,1
21.02.2018 18:00:00 -4,0 -4,7 7 4 16 9 OZO 1027,4 2,5 0,0
21.02.2018 17:00:00 -3,8 -4,5 10 5 23 12 O 1026,9 0,7 0,8
21.02.2018 16:00:00 -3,5 -4,8 10 6 23 12 OZO 1026,5 18 0,1
21.02.2018 15:00:00 -2,9 -4,2 11 6 26 14 O 1026,4 1,4 0,1
21.02.2018 14:00:00 -2,2 -4,1 16 8 29 16 O 1026,4 3,7 0,5
21.02.2018 13:00:00 -1,6 -5,4 8 4 16 9 O 1026,4 33 0,0
21.02.2018 12:00:00 -1,5 -6,4 6 3 16 8 NNO 1026,4 49 0,0
21.02.2018 11:00:00 -1,5 -7,0 4 2 13 7 N 1026,2 50 0,0
21.02.2018 10:00:00 -2,1 -6,5 6 3 15 8 N 1026,2 50 0,0
21.02.2018 09:00:00 -2,8 -5,9 5 3 14 8 NNO 1026,0 41 0,0
21.02.2018 08:00:00 -3,3 -6,9 6 3 15 8 NNO 1025,7 47 0,0
21.02.2018 07:00:00 -3,9 -6,4 4 2 14 8 NO 1025,7 30 0,0
21.02.2018 06:00:00 -3,7 -6,0 6 4 14 8 NO 1025,9 6 0,0
21.02.2018 05:00:00 -3,6 -6,9 7 4 16 8 N 1026,2 10 0,0
21.02.2018 04:00:00 -3,8 -7,2 8 4 16 9 NNO 1026,2 20 0,0
21.02.2018 03:00:00 -4,4 -7,8 8 4 20 11 NNO 1026,5 50 0,0
21.02.2018 02:00:00 -4,2 -7,5 6 4 18 10 NNO 1026,7 4,4 0,0
21.02.2018 01:00:00 -4,5 -6,9 7 4 19 10 NO 1027,0 10 0,0
21.02.2018 00:00:00 -4,0 -7,3 9 5 23 13 NNO 1027,2 7 0,0
20.02.2018 23:00:00 -4,1 -7,5 10 5 24 13 NNO 1027,0 50 0,0
20.02.2018 22:00:00 -3,9 -7,5 11 6 22 12 NNO 1027,1 50 0,0
20.02.2018 21:00:00 -3,7 -7,5 11 6 25 13 NNO 1027,2 41 0,0
20.02.2018 20:00:00 -3,6 -6,7 9 5 26 14 NNO 1027,2 27 0,0
20.02.2018 19:00:00 -3,4 -6,4 11 6 22 12 NNO 1027,2 15 0,0
20.02.2018 18:00:00 -3,2 -5,7 11 6 24 13 NO 1027,1 7 0,0
20.02.2018 17:00:00 -3,3 -4,9 12 6 23 12 NO 1026,9 2,5 0,0
20.02.2018 16:00:00 -3,2 -4,9 14 7 24 13 NO 1027,1 1,4 0,0
20.02.2018 15:00:00 -2,3 -4,8 11 6 19 10 NO 1027,1 3,3 0,0
20.02.2018 14:00:00 -1,6 -5,6 6 4 16 9 NNO 1027,3 50 0,2
20.02.2018 13:00:00 -2,3 -5,3 8 5 20 11 NO 1027,7 6 0,1
20.02.2018 12:00:00 -2,1 -4,3 10 6 24 13 ONO 1027,7 2,1 0,1
20.02.2018 11:00:00 -2,5 -4,1 10 5 20 11 ONO 1027,6 1,4 0,2
20.02.2018 10:00:00 -2,3 -4,2 12 6 23 12 NO 1027,5 1,2 0,1
20.02.2018 09:00:00 -2,2 -5,5 12 6 26 14 NO 1027,4 9 0,0
20.02.2018 08:00:00 -2,2 -5,0 10 6 25 13 NO 1027,0 12 0,0
20.02.2018 07:00:00 -2,1 -4,8 9 5 22 12 NNO 1027,0 16 0,0
20.02.2018 06:00:00 -2,0 -5,0 8 5 21 11 NNO 1027,0 14 0,0
20.02.2018 05:00:00 -2,0 -5,0 8 5 22 12 N 1027,0 26 0,0
20.02.2018 04:00:00 -2,0 -5,3 10 5 21 11 NO 1027,1 25 0,0
20.02.2018 03:00:00 -1,9 -5,2 11 6 26 14 NNO 1027,0 30 0,0
20.02.2018 02:00:00 -1,9 -4,7 8 4 26 14 NNO 1027,1 25 0,0
20.02.2018 01:00:00 -2,2 -5,5 9 5 27 15 NNO 1027,2 33 0,0
20.02.2018 00:00:00 -2,1 -4,9 11 6 27 15 NNO 1027,2 30 0,0
19.02.2018 23:00:00 -2,0 -4,7 12 7 26 14 NO 1026,9 19 0,0
19.02.2018 22:00:00 -2,1 -4,8 13 7 29 16 NO 1026,8 17 0,0
19.02.2018 21:00:00 -2,2 -5,0 14 8 34 18 NO 1026,9 18 0,0
19.02.2018 20:00:00 -2,2 -4,7 16 9 32 17 ONO 1026,7 13 0,0
19.02.2018 19:00:00 -2,2 -4,9 17 9 36 20 NO 1026,5 19 0,0
19.02.2018 18:00:00 -1,8 -4,3 17 9 34 18 NO 1026,2 21 0,0
19.02.2018 17:00:00 -1,5 -3,7 19 10 34 18 ONO 1025,8 12 0,0
19.02.2018 16:00:00 -1,3 -3,2 18 10 36 19 ONO 1025,4 3,3 0,0
19.02.2018 15:00:00 -0,9 -2,5 17 9 32 17 ONO 1025,1 7 0,0
19.02.2018 14:00:00 -0,9 -2,6 14 7 28 15 O 1024,8 2,5 0,0
19.02.2018 13:00:00 -0,6 -2,8 16 8 30 16 O 1024,5 9 0,0
19.02.2018 12:00:00 -0,5 -2,1 17 9 35 19 O 1024,3 8 0,2
19.02.2018 11:00:00 -0,5 -1,6 18 10 38 20 O 1023,9 4,0 0,1
19.02.2018 10:00:00 -0,7 -1,3 21 12 41 22 O 1023,4 6 0,3
19.02.2018 09:00:00 -0,4 -0,7 20 11 35 19 O 1022,9 1,7 0,1
19.02.2018 08:00:00 0,2 -0,5 15 8 32 17 O 1022,4 9 0,2
19.02.2018 07:00:00 0,6 -0,3 11 6 22 12 O 1021,8 8 0,1
19.02.2018 06:00:00 0,6 -0,1 8 5 19 10 OZO 1021,7 33 0,0

tt = temperatuur
td = dauwpunt
ff = windsnelheid
fx = windstoten
dd = windrichting
ppp = luchtdruk
vv = zicht
rr = neerslag

Weerstations in de omgeving